sat.trackr.live / text

‹ back to catalog

QIANFAN-93

NORAD 66035 · 2025-233C

PAYLOAD ACTIVE UNKNOWN

§ Identity

Operator
Country
PRC
Launch date
2025-10-17
Launch site
TAISC
Launch vehicle
Mass (kg)
RCS (m²)

External: N2YO · Heavens-Above · Gunter

§ Orbital elements

Epoch: 2026-05-25T04:33:58.069152Z

Period
106.59 min
Inclination
89.0030°
Eccentricity
0.0002168
Mean motion
13.51007670 rev/d
Perigee alt
1,066.9 km
Apogee alt
1,070.2 km
Semi-major
7,446.7 km
B*
1.9402e-4
RAAN
45.5342°
Arg perigee
68.9133°
Mean anomaly
291.2249°
Rev number
3,007

§ Raw data

QIANFAN-931 66035U 25233C   26145.19025543  .00000137  00000+0  19402-3 0  99912 66035  89.0030  45.5342 0002168  68.9133 291.2249 13.51007670 30071

JSON: /api/v1/satellites/66035 · /tle

For live sub-satellite position, see the globe view (requires WebGL).

§ Visibility from observer

Set your observer location to see the next 7 days of passes ≥ 10°. The values pass through the URL so the page stays shareable.

No JS? Fill the form by hand. The geolocation button needs JavaScript.